{"data":{"norad_id":68695,"epoch":"2026-05-25T04:15:42.749568Z","epoch_age_seconds":56548,"freshness":"FRESH","line1":"1 68695U 26080E   26145.17757812  .00004792  00000+0  30010-3 0  9994","line2":"2 68695  97.6640 220.8140 0017212 138.1640 222.0908 15.09740043  6159","mean_motion":15.09740043,"eccentricity":0.0017212,"inclination_deg":97.664,"raan_deg":220.814,"arg_perigee_deg":138.164,"mean_anomaly_deg":222.0908,"bstar":0.0003001,"rev_number":615,"period_min":95.380658854261,"perigee_km":525.09136146415,"apogee_km":548.89600733212,"semimajor_km":6915.1306843981,"source":"CELESTRAK","updated_at":"2026-05-25T13:38:08.023477Z"}}